Flag for U.S.A. Weather past 2 weeks in Olympia, Washington, U.S.A.

Now
58 °F

Light rain. Fog.


Feels Like: 58 °F
Forecast: 54 / 61 °F
Wind: No wind

Location: Olympia Airport

Current Time: Oct 20, 2014 at 1:52:04 AM

Latest Report: Oct 20, 2014 at 12:54 AM


Visibility: 5 mi

Pressure: 29.70 "Hg

Humidity: 93%

Dew point: 56 °F

Location of OlympiaLocation

Historic Weather in Olympia — Graph

°F

Olympia temperature yesterday

Maximum temperature yesterday: 72 °F (at 2:54 PM)
Minimum temperature yesterday: 53 °F (at 12:54 AM)
Average temperature yesterday: 61 °F

Past Weeks' High & Low Weather Summary

 TemperatureHumidityPressure
High122 °F (Oct 9, 11:55 AM)100% (Oct 5, 7:54 AM)30.25 "Hg (Oct 5, 7:54 AM)
Low46 °F (Oct 13, 6:54 AM)7% (Oct 9, 11:55 AM)29.51 "Hg (Oct 15, 4:54 AM)
Average58 °F86%29.94 "Hg
* Reported Oct 5 12:54 AM — Oct 20 12:54 AM, Olympia, Weather by CustomWeather, © 2014

Note: Actual official high and low records may vary slightly from our data, if they occured in-between our weather recording intervals... More about our weather records

Advertising

Olympia weather history for previous 24 hours

 ConditionsComfort  
Time TempWeatherWind HumidityBarometerVisibility
12:54 AM
Oct 20
58 °FLight rain. Fog.No wind93%29.70 "Hg5 mi
11:54 PM
Oct 19
59 °FMostly cloudy.No wind90%29.70 "Hg10 mi
10:54 PM60 °FOvercast.No wind90%29.69 "Hg10 mi
9:54 PM60 °FOvercast.3 mph86%29.69 "Hg10 mi
7:54 PM64 °FOvercast.No wind73%29.70 "Hg10 mi
6:54 PM67 °FOvercast.3 mph66%29.70 "Hg10 mi
5:54 PM68 °FPartly sunny.6 mph63%29.69 "Hg10 mi
4:54 PM71 °FScattered clouds.10 mph59%29.69 "Hg10 mi
3:54 PM72 °FBroken clouds.8 mph57%29.70 "Hg10 mi
2:54 PM72 °FPartly sunny.12 mph55%29.71 "Hg10 mi
1:54 PM71 °FBroken clouds.18 mph57%29.73 "Hg10 mi
12:54 PM68 °FPartly sunny.7 mph68%29.74 "Hg10 mi
11:54 AM66 °FOvercast.9 mph75%29.76 "Hg10 mi
10:54 AM63 °FScattered clouds.9 mph81%29.76 "Hg10 mi
9:54 AM58 °FScattered clouds.8 mph90%29.76 "Hg10 mi
8:54 AM56 °FScattered clouds.8 mph93%29.75 "Hg10 mi
7:54 AM54 °FFog.No wind97%29.73 "Hg5 mi
6:54 AM54 °FOvercast.No wind100%29.74 "Hg8 mi
5:54 AM54 °FOvercast.3 mph97%29.75 "Hg7 mi
4:54 AM53 °FFog.No wind100%29.76 "Hg1 mi
3:54 AM53 °FFog.No wind96%29.77 "Hg0 mi
2:54 AM54 °FFog.No wind97%29.79 "Hg0 mi
1:54 AM53 °FFog.No wind96%29.79 "Hg0 mi
Weather by CustomWeather, © 2014

See weather overviewHow to use our weather pages